軌道要素
Epoch 2014 Aug. 11.0 TT = JDT 2456880.5
T 2014 Aug. 27.65581 TT MPCW
q 1.0545573 (2000.0) P Q
z -0.0001537 Peri. 203.10559 -0.47153284 +0.78070312
Node 317.73797 +0.87390718 +0.47595619
e 1.0001621 Incl. 142.42835 +0.11808058 -0.40493005
From 6723 observations 2012 May 14-2016 July 30, mean residual 0".5.
Nongravitational parameters A1 = +1.85, A2 = +0.0831.
|